Year,Month,Day,Hour,Minute,Value (Times are PST for temperature in C)
2015,06,23,00,00,14.80
2015,06,23,00,01,14.90
2015,06,23,00,02,15.00
2015,06,23,00,03,15.10
2015,06,23,00,04,15.30
2015,06,23,00,05,15.30
2015,06,23,00,06,15.40
2015,06,23,00,07,15.40
2015,06,23,00,08,15.50
2015,06,23,00,09,15.50
2015,06,23,00,10,15.50
2015,06,23,00,11,15.50
2015,06,23,00,12,15.40
2015,06,23,00,13,15.40
2015,06,23,00,14,15.40
2015,06,23,00,15,15.40
2015,06,23,00,16,15.50
2015,06,23,00,17,15.50
2015,06,23,00,18,15.50
2015,06,23,00,19,15.50
2015,06,23,00,20,15.50
2015,06,23,00,21,15.50
2015,06,23,00,22,15.40
2015,06,23,00,23,15.40
2015,06,23,00,24,15.40
2015,06,23,00,25,15.40
2015,06,23,00,26,15.50
2015,06,23,00,27,15.50
2015,06,23,00,28,15.60
2015,06,23,00,29,15.60
2015,06,23,00,30,15.60
2015,06,23,00,31,15.70
2015,06,23,00,32,15.70
2015,06,23,00,33,15.70
2015,06,23,00,34,15.60
2015,06,23,00,35,15.60
2015,06,23,00,36,15.60
2015,06,23,00,37,15.60
2015,06,23,00,38,15.60
2015,06,23,00,39,15.60
2015,06,23,00,40,15.50
2015,06,23,00,41,15.50
2015,06,23,00,42,15.40
2015,06,23,00,43,15.40
2015,06,23,00,44,15.40
2015,06,23,00,45,15.30
2015,06,23,00,46,15.20
2015,06,23,00,47,15.10
2015,06,23,00,48,15.00
2015,06,23,00,49,15.00
2015,06,23,00,50,14.90
2015,06,23,00,51,14.90
2015,06,23,00,52,14.80
2015,06,23,00,53,14.80
2015,06,23,00,54,14.80
2015,06,23,00,55,14.90
2015,06,23,00,56,14.90
2015,06,23,00,57,14.90
2015,06,23,00,58,14.90
2015,06,23,00,59,14.90
2015,06,23,01,00,15.00
2015,06,23,01,01,15.00
2015,06,23,01,02,15.00
2015,06,23,01,03,14.90
2015,06,23,01,04,14.90
2015,06,23,01,05,14.90
2015,06,23,01,06,14.80
2015,06,23,01,07,14.80
2015,06,23,01,08,14.80
2015,06,23,01,09,14.70
2015,06,23,01,10,14.70
2015,06,23,01,11,14.70
2015,06,23,01,12,14.60
2015,06,23,01,13,14.60
2015,06,23,01,14,14.60
2015,06,23,01,15,14.60
2015,06,23,01,16,14.50
2015,06,23,01,17,14.50
2015,06,23,01,18,14.50
2015,06,23,01,19,14.40
2015,06,23,01,20,14.40
2015,06,23,01,21,14.40
2015,06,23,01,22,14.30
2015,06,23,01,23,14.30
2015,06,23,01,24,14.20
2015,06,23,01,25,14.00
2015,06,23,01,26,13.90
2015,06,23,01,27,13.80
2015,06,23,01,28,13.80
2015,06,23,01,29,13.80
2015,06,23,01,30,13.80
2015,06,23,01,31,13.80
2015,06,23,01,32,13.80
2015,06,23,01,33,13.80
2015,06,23,01,34,13.80
2015,06,23,01,35,13.80
2015,06,23,01,36,13.80
2015,06,23,01,37,13.90
2015,06,23,01,38,13.80
2015,06,23,01,39,13.90
2015,06,23,01,40,13.80
2015,06,23,01,41,13.80
2015,06,23,01,42,13.70
2015,06,23,01,43,13.70
2015,06,23,01,44,13.70
2015,06,23,01,45,13.70
2015,06,23,01,46,13.70
2015,06,23,01,47,13.70
2015,06,23,01,48,13.60
2015,06,23,01,49,13.60
2015,06,23,01,50,13.50
2015,06,23,01,51,13.40
2015,06,23,01,52,13.40
2015,06,23,01,53,13.50
2015,06,23,01,54,13.60
2015,06,23,01,55,13.70
2015,06,23,01,56,13.80
2015,06,23,01,57,13.80
2015,06,23,01,58,13.80
2015,06,23,01,59,13.90
2015,06,23,02,00,14.00
2015,06,23,02,01,14.10
2015,06,23,02,02,14.10
2015,06,23,02,03,14.20
2015,06,23,02,04,14.30
2015,06,23,02,05,14.30
2015,06,23,02,06,14.30
2015,06,23,02,07,14.30
2015,06,23,02,08,14.30
2015,06,23,02,09,14.30
2015,06,23,02,10,14.30
2015,06,23,02,11,14.30
2015,06,23,02,12,14.30
2015,06,23,02,13,14.30
2015,06,23,02,14,14.30
2015,06,23,02,15,14.30
2015,06,23,02,16,14.30
2015,06,23,02,17,14.30
2015,06,23,02,18,14.30
2015,06,23,02,19,14.30
2015,06,23,02,20,14.40
2015,06,23,02,21,14.40
2015,06,23,02,22,14.40
2015,06,23,02,23,14.40
2015,06,23,02,24,14.40
2015,06,23,02,25,14.40
2015,06,23,02,26,14.40
2015,06,23,02,27,14.40
2015,06,23,02,28,14.40
2015,06,23,02,29,14.40
2015,06,23,02,30,14.30
2015,06,23,02,31,14.30
2015,06,23,02,32,14.30
2015,06,23,02,33,14.40
2015,06,23,02,34,14.40
2015,06,23,02,35,14.40
2015,06,23,02,36,14.40
2015,06,23,02,37,14.40
2015,06,23,02,38,14.40
2015,06,23,02,39,14.40
2015,06,23,02,40,14.40
2015,06,23,02,41,14.40
2015,06,23,02,42,14.40
2015,06,23,02,43,14.40
2015,06,23,02,44,14.40
2015,06,23,02,45,14.30
2015,06,23,02,46,14.30
2015,06,23,02,47,14.30
2015,06,23,02,48,14.30
2015,06,23,02,49,14.30
2015,06,23,02,50,14.20
2015,06,23,02,51,14.20
2015,06,23,02,52,14.20
2015,06,23,02,53,14.20
2015,06,23,02,54,14.20
2015,06,23,02,55,14.20
2015,06,23,02,56,14.10
2015,06,23,02,57,14.10
2015,06,23,02,58,14.10
2015,06,23,02,59,14.10
2015,06,23,03,00,14.10
2015,06,23,03,01,14.10
2015,06,23,03,02,14.10
2015,06,23,03,03,14.10
2015,06,23,03,04,14.10
2015,06,23,03,05,14.10
2015,06,23,03,06,14.10
2015,06,23,03,07,14.10
2015,06,23,03,08,14.10
2015,06,23,03,09,14.00
2015,06,23,03,10,14.00
2015,06,23,03,11,14.00
2015,06,23,03,12,14.00
2015,06,23,03,13,14.10
2015,06,23,03,14,14.10
2015,06,23,03,15,14.10
2015,06,23,03,16,14.10
2015,06,23,03,17,14.10
2015,06,23,03,18,14.10
2015,06,23,03,19,14.10
2015,06,23,03,20,14.10
2015,06,23,03,21,14.10
2015,06,23,03,22,14.10
2015,06,23,03,23,14.10
2015,06,23,03,24,14.10
2015,06,23,03,25,14.10
2015,06,23,03,26,14.10
2015,06,23,03,27,14.20
2015,06,23,03,28,14.20
2015,06,23,03,29,14.20
2015,06,23,03,30,14.10
2015,06,23,03,31,14.10
2015,06,23,03,32,14.10
2015,06,23,03,33,14.10
2015,06,23,03,34,14.10
2015,06,23,03,35,14.00
2015,06,23,03,36,14.00
2015,06,23,03,37,14.00
2015,06,23,03,38,14.00
2015,06,23,03,39,13.90
2015,06,23,03,40,13.90
2015,06,23,03,41,13.90
2015,06,23,03,42,13.90
2015,06,23,03,43,13.90
2015,06,23,03,44,13.90
2015,06,23,03,45,13.90
2015,06,23,03,46,13.80
2015,06,23,03,47,13.80
2015,06,23,03,48,13.80
2015,06,23,03,49,13.80
2015,06,23,03,50,13.80
2015,06,23,03,51,13.70
2015,06,23,03,52,13.70
2015,06,23,03,53,13.70
2015,06,23,03,54,13.70
2015,06,23,03,55,13.60
2015,06,23,03,56,13.60
2015,06,23,03,57,13.50
2015,06,23,03,58,13.50
2015,06,23,03,59,13.40
2015,06,23,04,00,13.40
2015,06,23,04,01,13.40
2015,06,23,04,02,13.40
2015,06,23,04,03,13.40
2015,06,23,04,04,13.40
2015,06,23,04,05,13.40
2015,06,23,04,06,13.40
2015,06,23,04,07,13.40
2015,06,23,04,08,13.40
2015,06,23,04,09,13.40
2015,06,23,04,10,13.40
2015,06,23,04,11,13.40
2015,06,23,04,12,13.40
2015,06,23,04,13,13.40
2015,06,23,04,14,13.40
2015,06,23,04,15,13.30
2015,06,23,04,16,13.30
2015,06,23,04,17,13.30
2015,06,23,04,18,13.20
2015,06,23,04,19,13.20
2015,06,23,04,20,13.30
2015,06,23,04,21,13.30
2015,06,23,04,22,13.30
2015,06,23,04,23,13.30
2015,06,23,04,24,13.30
2015,06,23,04,25,13.30
2015,06,23,04,26,13.30
2015,06,23,04,27,13.40
2015,06,23,04,28,13.40
2015,06,23,04,29,13.40
2015,06,23,04,30,13.40
2015,06,23,04,31,13.40
2015,06,23,04,32,13.30
2015,06,23,04,33,13.30
2015,06,23,04,34,13.30
2015,06,23,04,35,13.30
2015,06,23,04,36,13.30
2015,06,23,04,37,13.30
2015,06,23,04,38,13.30
2015,06,23,04,39,13.30
2015,06,23,04,40,13.30
2015,06,23,04,41,13.30
2015,06,23,04,42,13.30
2015,06,23,04,43,13.30
2015,06,23,04,44,13.20
2015,06,23,04,45,13.20
2015,06,23,04,46,13.20
2015,06,23,04,47,13.20
2015,06,23,04,48,13.20
2015,06,23,04,49,13.10
2015,06,23,04,50,13.20
2015,06,23,04,51,13.20
2015,06,23,04,52,13.20
2015,06,23,04,53,13.20
2015,06,23,04,54,13.20
2015,06,23,04,55,13.20
2015,06,23,04,56,13.20
2015,06,23,04,57,13.20
2015,06,23,04,58,13.20
2015,06,23,04,59,13.20
2015,06,23,05,00,13.20
2015,06,23,05,01,13.20
2015,06,23,05,02,13.10
2015,06,23,05,03,13.10
2015,06,23,05,04,13.10
2015,06,23,05,05,13.10
2015,06,23,05,06,13.10
2015,06,23,05,07,13.10
2015,06,23,05,08,13.20
2015,06,23,05,09,13.10
2015,06,23,05,10,13.10
2015,06,23,05,11,13.10
2015,06,23,05,12,13.10
2015,06,23,05,13,13.10
2015,06,23,05,14,13.10
2015,06,23,05,15,13.10
2015,06,23,05,16,13.00
2015,06,23,05,17,13.00
2015,06,23,05,18,13.00
2015,06,23,05,19,13.00
2015,06,23,05,20,13.00
2015,06,23,05,21,13.00
2015,06,23,05,22,13.00
2015,06,23,05,23,13.00
2015,06,23,05,24,13.00
2015,06,23,05,25,13.00
2015,06,23,05,26,13.00
2015,06,23,05,27,13.00
2015,06,23,05,28,13.00
2015,06,23,05,29,13.00
2015,06,23,05,30,13.10
2015,06,23,05,31,13.10
2015,06,23,05,32,13.10
2015,06,23,05,33,13.10
2015,06,23,05,34,13.10
2015,06,23,05,35,13.10
2015,06,23,05,36,13.10
2015,06,23,05,37,13.10
2015,06,23,05,38,13.10
2015,06,23,05,39,13.10
2015,06,23,05,40,13.10
2015,06,23,05,41,13.10
2015,06,23,05,42,13.10
2015,06,23,05,43,13.10
2015,06,23,05,44,13.10
2015,06,23,05,45,13.10
2015,06,23,05,46,13.10
2015,06,23,05,47,13.10
2015,06,23,05,48,13.10
2015,06,23,05,49,13.10
2015,06,23,05,50,13.20
2015,06,23,05,51,13.20
2015,06,23,05,52,13.20
2015,06,23,05,53,13.20
2015,06,23,05,54,13.20
2015,06,23,05,55,13.30
2015,06,23,05,56,13.30
2015,06,23,05,57,13.30
2015,06,23,05,58,13.30
2015,06,23,05,59,13.30
2015,06,23,06,00,13.30
2015,06,23,06,01,13.30
2015,06,23,06,02,13.30
2015,06,23,06,03,13.30
2015,06,23,06,04,13.30
2015,06,23,06,05,13.30
2015,06,23,06,06,13.30
2015,06,23,06,07,13.30
2015,06,23,06,08,13.30
2015,06,23,06,09,13.30
2015,06,23,06,10,13.30
2015,06,23,06,11,13.30
2015,06,23,06,12,13.30
2015,06,23,06,13,13.40
2015,06,23,06,14,13.40
2015,06,23,06,15,13.40
2015,06,23,06,16,13.40
2015,06,23,06,17,13.40
2015,06,23,06,18,13.40
2015,06,23,06,19,13.40
2015,06,23,06,20,13.50
2015,06,23,06,21,13.50
2015,06,23,06,22,13.50
2015,06,23,06,23,13.60
2015,06,23,06,24,13.60
2015,06,23,06,25,13.60
2015,06,23,06,26,13.70
2015,06,23,06,27,13.70
2015,06,23,06,28,13.70
2015,06,23,06,29,13.70
2015,06,23,06,30,13.80
2015,06,23,06,31,13.80
2015,06,23,06,32,13.80
2015,06,23,06,33,13.80
2015,06,23,06,34,13.80
2015,06,23,06,35,13.90
2015,06,23,06,36,13.90
2015,06,23,06,37,13.90
2015,06,23,06,38,14.00
2015,06,23,06,39,14.00
2015,06,23,06,40,14.00
2015,06,23,06,41,14.00
2015,06,23,06,42,14.10
2015,06,23,06,43,14.10
2015,06,23,06,44,14.10
2015,06,23,06,45,14.20
2015,06,23,06,46,14.20
2015,06,23,06,47,14.20
2015,06,23,06,48,14.20
2015,06,23,06,49,14.30
2015,06,23,06,50,14.30
2015,06,23,06,51,14.30
2015,06,23,06,52,14.30
2015,06,23,06,53,14.40
2015,06,23,06,54,14.40
2015,06,23,06,55,14.50
2015,06,23,06,56,14.50
2015,06,23,06,57,14.60
2015,06,23,06,58,14.60
2015,06,23,06,59,14.60
2015,06,23,07,00,14.70
2015,06,23,07,01,14.70
2015,06,23,07,02,14.80
2015,06,23,07,03,14.80
2015,06,23,07,04,14.80
2015,06,23,07,05,14.80
2015,06,23,07,06,14.80
2015,06,23,07,07,14.90
2015,06,23,07,08,14.90
2015,06,23,07,09,15.00
2015,06,23,07,10,15.00
2015,06,23,07,11,15.00
2015,06,23,07,12,15.10
2015,06,23,07,13,15.10
2015,06,23,07,14,15.10
2015,06,23,07,15,15.20
2015,06,23,07,16,15.20
2015,06,23,07,17,15.20
2015,06,23,07,18,15.30
2015,06,23,07,19,15.30
2015,06,23,07,20,15.30
2015,06,23,07,21,15.30
2015,06,23,07,22,15.40
2015,06,23,07,23,15.40
2015,06,23,07,24,15.50
2015,06,23,07,25,15.50
2015,06,23,07,26,15.60
2015,06,23,07,27,15.60
2015,06,23,07,28,15.70
2015,06,23,07,29,15.70
2015,06,23,07,30,15.80
2015,06,23,07,31,15.80
2015,06,23,07,32,15.90
2015,06,23,07,33,15.90
2015,06,23,07,34,16.00
2015,06,23,07,35,16.00
2015,06,23,07,36,16.10
2015,06,23,07,37,16.10
2015,06,23,07,38,16.20
2015,06,23,07,39,16.20
2015,06,23,07,40,16.30
2015,06,23,07,41,16.30
2015,06,23,07,42,16.40
2015,06,23,07,43,16.40
2015,06,23,07,44,16.50
2015,06,23,07,45,16.60
2015,06,23,07,46,16.70
2015,06,23,07,47,16.80
2015,06,23,07,48,16.80
2015,06,23,07,49,16.90
2015,06,23,07,50,17.00
2015,06,23,07,51,17.00
2015,06,23,07,52,17.10
2015,06,23,07,53,17.20
2015,06,23,07,54,17.30
2015,06,23,07,55,17.30
2015,06,23,07,56,17.40
2015,06,23,07,57,17.40
2015,06,23,07,58,17.40
2015,06,23,07,59,17.50
2015,06,23,08,00,17.50
2015,06,23,08,01,17.60
2015,06,23,08,02,17.60
2015,06,23,08,03,17.70
2015,06,23,08,04,17.70
2015,06,23,08,05,17.70
2015,06,23,08,06,17.70
2015,06,23,08,07,17.70
2015,06,23,08,08,17.70
2015,06,23,08,09,17.80
2015,06,23,08,10,17.80
2015,06,23,08,11,17.80
2015,06,23,08,12,17.80
2015,06,23,08,13,17.80
2015,06,23,08,14,17.70
2015,06,23,08,15,17.70
2015,06,23,08,16,17.60
2015,06,23,08,17,17.60
2015,06,23,08,18,17.60
2015,06,23,08,19,17.50
2015,06,23,08,20,17.50
2015,06,23,08,21,17.50
2015,06,23,08,22,17.50
2015,06,23,08,23,17.50
2015,06,23,08,24,17.50
2015,06,23,08,25,17.50
2015,06,23,08,26,17.40
2015,06,23,08,27,17.40
2015,06,23,08,28,17.50
2015,06,23,08,29,17.50
2015,06,23,08,30,17.60
2015,06,23,08,31,17.60
2015,06,23,08,32,17.60
2015,06,23,08,33,17.60
2015,06,23,08,34,17.60
2015,06,23,08,35,17.60
2015,06,23,08,36,17.50
2015,06,23,08,37,17.40
2015,06,23,08,38,17.30
2015,06,23,08,39,17.20
2015,06,23,08,40,17.20
2015,06,23,08,41,17.10
2015,06,23,08,42,17.00
2015,06,23,08,43,17.00
2015,06,23,08,44,16.90
2015,06,23,08,45,17.00
2015,06,23,08,46,17.00
2015,06,23,08,47,17.00
2015,06,23,08,48,17.00
2015,06,23,08,49,17.00
2015,06,23,08,50,16.90
2015,06,23,08,51,16.90
2015,06,23,08,52,17.00
2015,06,23,08,53,17.00
2015,06,23,08,54,17.00
2015,06,23,08,55,17.00
2015,06,23,08,56,17.10
2015,06,23,08,57,17.10
2015,06,23,08,58,17.20
2015,06,23,08,59,17.20
2015,06,23,09,00,17.20
2015,06,23,09,01,17.20
2015,06,23,09,02,17.30
2015,06,23,09,03,17.30
2015,06,23,09,04,17.30
2015,06,23,09,05,17.30
2015,06,23,09,06,17.30
2015,06,23,09,07,17.30
2015,06,23,09,08,17.20
2015,06,23,09,09,17.20
2015,06,23,09,10,17.20
2015,06,23,09,11,17.20
2015,06,23,09,12,17.20
2015,06,23,09,13,17.20
2015,06,23,09,14,17.20
2015,06,23,09,15,17.20
2015,06,23,09,16,17.20
2015,06,23,09,17,17.20
2015,06,23,09,18,17.20
2015,06,23,09,19,17.20
2015,06,23,09,20,17.10
2015,06,23,09,21,17.10
2015,06,23,09,22,17.10
2015,06,23,09,23,17.20
2015,06,23,09,24,17.10
2015,06,23,09,25,17.10
2015,06,23,09,26,17.10
2015,06,23,09,27,17.10
2015,06,23,09,28,17.20
2015,06,23,09,29,17.20
2015,06,23,09,30,17.20
2015,06,23,09,31,17.30
2015,06,23,09,32,17.30
2015,06,23,09,33,17.40
2015,06,23,09,34,17.40
2015,06,23,09,35,17.30
2015,06,23,09,36,17.30
2015,06,23,09,37,17.30
2015,06,23,09,38,17.30
2015,06,23,09,39,17.30
2015,06,23,09,40,17.30
2015,06,23,09,41,17.30
2015,06,23,09,42,17.20
2015,06,23,09,43,17.20
2015,06,23,09,44,17.20
2015,06,23,09,45,17.30
2015,06,23,09,46,17.30
2015,06,23,09,47,17.30
2015,06,23,09,48,17.40
2015,06,23,09,49,17.40
2015,06,23,09,50,17.40
2015,06,23,09,51,17.40
2015,06,23,09,52,17.40
2015,06,23,09,53,17.40
2015,06,23,09,54,17.40
2015,06,23,09,55,17.40
2015,06,23,09,56,17.40
2015,06,23,09,57,17.40
2015,06,23,09,58,17.40
2015,06,23,09,59,17.40
2015,06,23,10,00,17.50
2015,06,23,10,01,17.50
2015,06,23,10,02,17.50
2015,06,23,10,03,17.40
2015,06,23,10,04,17.40
2015,06,23,10,05,17.40
2015,06,23,10,06,17.40
2015,06,23,10,07,17.40
2015,06,23,10,08,17.50
2015,06,23,10,09,17.50
2015,06,23,10,10,17.50
2015,06,23,10,11,17.50
2015,06,23,10,12,17.60
2015,06,23,10,13,17.70
2015,06,23,10,14,17.70
2015,06,23,10,15,17.60
2015,06,23,10,16,17.60
2015,06,23,10,17,17.50
2015,06,23,10,18,17.40
2015,06,23,10,19,17.40
2015,06,23,10,20,17.40
2015,06,23,10,21,17.40
2015,06,23,10,22,17.50
2015,06,23,10,23,17.50
2015,06,23,10,24,17.50
2015,06,23,10,25,17.60
2015,06,23,10,26,17.60
2015,06,23,10,27,17.70
2015,06,23,10,28,17.60
2015,06,23,10,29,17.50
2015,06,23,10,30,17.40
2015,06,23,10,31,17.40
2015,06,23,10,32,17.40
2015,06,23,10,33,17.40
2015,06,23,10,34,17.50
2015,06,23,10,35,17.50
2015,06,23,10,36,17.50
2015,06,23,10,37,17.40
2015,06,23,10,38,17.30
2015,06,23,10,39,17.40
2015,06,23,10,40,17.40
2015,06,23,10,41,17.40
2015,06,23,10,42,17.50
2015,06,23,10,43,17.40
2015,06,23,10,44,17.50
2015,06,23,10,45,17.40
2015,06,23,10,46,17.40
2015,06,23,10,47,17.40
2015,06,23,10,48,17.40
2015,06,23,10,49,17.40
2015,06,23,10,50,17.40
2015,06,23,10,51,17.50
2015,06,23,10,52,17.50
2015,06,23,10,53,17.50
2015,06,23,10,54,17.40
2015,06,23,10,55,17.50
2015,06,23,10,56,17.50
2015,06,23,10,57,17.60
2015,06,23,10,58,17.70
2015,06,23,10,59,17.70
2015,06,23,11,00,17.70
2015,06,23,11,01,17.70
2015,06,23,11,02,17.70
2015,06,23,11,03,17.80
2015,06,23,11,04,17.90
2015,06,23,11,05,17.90
2015,06,23,11,06,17.80
2015,06,23,11,07,17.80
2015,06,23,11,08,17.70
2015,06,23,11,09,17.70
2015,06,23,11,10,17.70
2015,06,23,11,11,17.80
2015,06,23,11,12,17.80
2015,06,23,11,13,17.80
2015,06,23,11,14,17.80
2015,06,23,11,15,17.90
2015,06,23,11,16,17.90
2015,06,23,11,17,18.00
2015,06,23,11,18,18.10
2015,06,23,11,19,18.10
2015,06,23,11,20,18.10
2015,06,23,11,21,18.10
2015,06,23,11,22,18.10
2015,06,23,11,23,18.10
2015,06,23,11,24,18.00
2015,06,23,11,25,17.90
2015,06,23,11,26,17.90
2015,06,23,11,27,17.90
2015,06,23,11,28,17.90
2015,06,23,11,29,17.90
2015,06,23,11,30,17.80
2015,06,23,11,31,17.80
2015,06,23,11,32,17.80
2015,06,23,11,33,17.70
2015,06,23,11,34,17.60
2015,06,23,11,35,17.60
2015,06,23,11,36,17.60
2015,06,23,11,37,17.60
2015,06,23,11,38,17.60
2015,06,23,11,39,17.70
2015,06,23,11,40,17.70
2015,06,23,11,41,17.70
2015,06,23,11,42,17.80
2015,06,23,11,43,17.80
2015,06,23,11,44,17.80
2015,06,23,11,45,17.90
2015,06,23,11,46,18.00
2015,06,23,11,47,18.10
2015,06,23,11,48,18.10
2015,06,23,11,49,18.20
2015,06,23,11,50,18.20
2015,06,23,11,51,18.20
2015,06,23,11,52,18.10
2015,06,23,11,53,18.10
2015,06,23,11,54,18.00
2015,06,23,11,55,18.00
2015,06,23,11,56,18.10
2015,06,23,11,57,18.10
2015,06,23,11,58,18.20
2015,06,23,11,59,18.20
2015,06,23,12,00,18.20
2015,06,23,12,01,18.20
2015,06,23,12,02,18.30
2015,06,23,12,03,18.30
2015,06,23,12,04,18.20
2015,06,23,12,05,18.30
2015,06,23,12,06,18.40
2015,06,23,12,07,18.40
2015,06,23,12,08,18.40
2015,06,23,12,09,18.40
2015,06,23,12,10,18.40
2015,06,23,12,11,18.30
2015,06,23,12,12,18.30
2015,06,23,12,13,18.20
2015,06,23,12,14,18.20
2015,06,23,12,15,18.10
2015,06,23,12,16,18.10
2015,06,23,12,17,18.20
2015,06,23,12,18,18.20
2015,06,23,12,19,18.30
2015,06,23,12,20,18.20
2015,06,23,12,21,18.20
2015,06,23,12,22,18.20
2015,06,23,12,23,18.20
2015,06,23,12,24,18.30
2015,06,23,12,25,18.30
2015,06,23,12,26,18.40
2015,06,23,12,27,18.50
2015,06,23,12,28,18.50
2015,06,23,12,29,18.50
2015,06,23,12,30,18.60
2015,06,23,12,31,18.60
2015,06,23,12,32,18.50
2015,06,23,12,33,18.50
2015,06,23,12,34,18.40
2015,06,23,12,35,18.30
2015,06,23,12,36,18.40
2015,06,23,12,37,18.40
2015,06,23,12,38,18.40
2015,06,23,12,39,18.30
2015,06,23,12,40,18.30
2015,06,23,12,41,18.30
2015,06,23,12,42,18.30
2015,06,23,12,43,18.40
2015,06,23,12,44,18.50
2015,06,23,12,45,18.60
2015,06,23,12,46,18.60
2015,06,23,12,47,18.60
2015,06,23,12,48,18.70
2015,06,23,12,49,18.70
2015,06,23,12,50,18.80
2015,06,23,12,51,18.90
2015,06,23,12,52,19.00
2015,06,23,12,53,19.10
2015,06,23,12,54,19.10
2015,06,23,12,55,19.10
2015,06,23,12,56,19.20
2015,06,23,12,57,19.20
2015,06,23,12,58,19.30
2015,06,23,12,59,19.40
2015,06,23,13,00,19.30
2015,06,23,13,01,19.20
2015,06,23,13,02,19.20
2015,06,23,13,03,19.20
2015,06,23,13,04,19.10
2015,06,23,13,05,19.00
2015,06,23,13,06,18.80
2015,06,23,13,07,18.70
2015,06,23,13,08,18.70
2015,06,23,13,09,18.70
2015,06,23,13,10,18.70
2015,06,23,13,11,18.60
2015,06,23,13,12,18.60
2015,06,23,13,13,18.60
2015,06,23,13,14,18.60
2015,06,23,13,15,18.70
2015,06,23,13,16,18.70
2015,06,23,13,17,18.70
2015,06,23,13,18,18.70
2015,06,23,13,19,18.80
2015,06,23,13,20,18.80
2015,06,23,13,21,18.70
2015,06,23,13,22,18.70
2015,06,23,13,23,18.70
2015,06,23,13,24,18.70
2015,06,23,13,25,18.70
2015,06,23,13,26,18.70
2015,06,23,13,27,18.70
2015,06,23,13,28,18.70
2015,06,23,13,29,18.70
2015,06,23,13,30,18.60
2015,06,23,13,31,18.60
2015,06,23,13,32,18.60
2015,06,23,13,33,18.60
2015,06,23,13,34,18.60
2015,06,23,13,35,18.60
2015,06,23,13,36,18.60
2015,06,23,13,37,18.50
2015,06,23,13,38,18.50
2015,06,23,13,39,18.60
2015,06,23,13,40,18.70
2015,06,23,13,41,18.80
2015,06,23,13,42,18.80
2015,06,23,13,43,18.90
2015,06,23,13,44,19.00
2015,06,23,13,45,19.00
2015,06,23,13,46,19.10
2015,06,23,13,47,19.10
2015,06,23,13,48,19.10
2015,06,23,13,49,19.20
2015,06,23,13,50,19.20
2015,06,23,13,51,19.30
2015,06,23,13,52,19.40
2015,06,23,13,53,19.30
2015,06,23,13,54,19.40
2015,06,23,13,55,19.40
2015,06,23,13,56,19.40
2015,06,23,13,57,19.40
2015,06,23,13,58,19.40
2015,06,23,13,59,19.50
2015,06,23,14,00,19.50
2015,06,23,14,01,19.60
2015,06,23,14,02,19.60
2015,06,23,14,03,19.50
2015,06,23,14,04,19.50
2015,06,23,14,05,19.50
2015,06,23,14,06,19.40
2015,06,23,14,07,19.30
2015,06,23,14,08,19.20
2015,06,23,14,09,19.20
2015,06,23,14,10,19.20
2015,06,23,14,11,19.20
2015,06,23,14,12,19.20
2015,06,23,14,13,19.20
2015,06,23,14,14,19.20
2015,06,23,14,15,19.30
2015,06,23,14,16,19.40
2015,06,23,14,17,19.40
2015,06,23,14,18,19.40
2015,06,23,14,19,19.40
2015,06,23,14,20,19.40
2015,06,23,14,21,19.30
2015,06,23,14,22,19.40
2015,06,23,14,23,19.40
2015,06,23,14,24,19.50
2015,06,23,14,25,19.60
2015,06,23,14,26,19.70
2015,06,23,14,27,19.70
2015,06,23,14,28,19.80
2015,06,23,14,29,19.80
2015,06,23,14,30,19.70
2015,06,23,14,31,19.70
2015,06,23,14,32,19.70
2015,06,23,14,33,19.70
2015,06,23,14,34,19.70
2015,06,23,14,35,19.70
2015,06,23,14,36,19.70
2015,06,23,14,37,19.70
2015,06,23,14,38,19.70
2015,06,23,14,39,19.70
2015,06,23,14,40,19.80
2015,06,23,14,41,19.80
2015,06,23,14,42,19.80
2015,06,23,14,43,19.80
2015,06,23,14,44,19.80
2015,06,23,14,45,19.80
2015,06,23,14,46,19.80
2015,06,23,14,47,19.80
2015,06,23,14,48,19.90
2015,06,23,14,49,20.00
2015,06,23,14,50,20.00
2015,06,23,14,51,20.10
2015,06,23,14,52,20.20
2015,06,23,14,53,20.30
2015,06,23,14,54,20.40
2015,06,23,14,55,20.40
2015,06,23,14,56,20.40
2015,06,23,14,57,20.40
2015,06,23,14,58,20.50
2015,06,23,14,59,20.50
2015,06,23,15,00,20.60
2015,06,23,15,01,20.70
2015,06,23,15,02,20.70
2015,06,23,15,03,20.70
2015,06,23,15,04,20.70
2015,06,23,15,05,20.70
2015,06,23,15,06,20.70
2015,06,23,15,07,20.60
2015,06,23,15,08,20.50
2015,06,23,15,09,20.40
2015,06,23,15,10,20.30
2015,06,23,15,11,20.40
2015,06,23,15,12,20.50
2015,06,23,15,13,20.60
2015,06,23,15,14,20.60
2015,06,23,15,15,20.60
2015,06,23,15,16,20.50
2015,06,23,15,17,20.50
2015,06,23,15,18,20.40
2015,06,23,15,19,20.40
2015,06,23,15,20,20.40
2015,06,23,15,21,20.40
2015,06,23,15,22,20.30
2015,06,23,15,23,20.30
2015,06,23,15,24,20.30
2015,06,23,15,25,20.30
2015,06,23,15,26,20.30
2015,06,23,15,27,20.20
2015,06,23,15,28,20.30
2015,06,23,15,29,20.30
2015,06,23,15,30,20.40
2015,06,23,15,31,20.40
2015,06,23,15,32,20.50
2015,06,23,15,33,20.60
2015,06,23,15,34,20.70
2015,06,23,15,35,20.60
2015,06,23,15,36,20.60
2015,06,23,15,37,20.60
2015,06,23,15,38,20.50
2015,06,23,15,39,20.50
2015,06,23,15,40,20.50
2015,06,23,15,41,20.60
2015,06,23,15,42,20.60
2015,06,23,15,43,20.60
2015,06,23,15,44,20.60
2015,06,23,15,45,20.60
2015,06,23,15,46,20.60
2015,06,23,15,47,20.70
2015,06,23,15,48,20.70
2015,06,23,15,49,20.70
2015,06,23,15,50,20.70
2015,06,23,15,51,20.80
2015,06,23,15,52,20.70
2015,06,23,15,53,20.80
2015,06,23,15,54,20.80
2015,06,23,15,55,20.80
2015,06,23,15,56,20.70
2015,06,23,15,57,20.70
2015,06,23,15,58,20.70
2015,06,23,15,59,20.70
2015,06,23,16,00,20.80
2015,06,23,16,01,20.80
2015,06,23,16,02,20.80
2015,06,23,16,03,20.80
2015,06,23,16,04,20.90
2015,06,23,16,05,21.00
2015,06,23,16,06,21.00
2015,06,23,16,07,21.00
2015,06,23,16,08,21.10
2015,06,23,16,09,21.20
2015,06,23,16,10,21.20
2015,06,23,16,11,21.10
2015,06,23,16,12,21.10
2015,06,23,16,13,21.00
2015,06,23,16,14,21.00
2015,06,23,16,15,20.90
2015,06,23,16,16,20.90
2015,06,23,16,17,20.80
2015,06,23,16,18,20.80
2015,06,23,16,19,20.80
2015,06,23,16,20,20.80
2015,06,23,16,21,20.80
2015,06,23,16,22,20.90
2015,06,23,16,23,21.00
2015,06,23,16,24,21.10
2015,06,23,16,25,21.20
2015,06,23,16,26,21.10
2015,06,23,16,27,21.00
2015,06,23,16,28,21.00
2015,06,23,16,29,20.90
2015,06,23,16,30,20.90
2015,06,23,16,31,20.90
2015,06,23,16,32,20.90
2015,06,23,16,33,21.10
2015,06,23,16,34,21.10
2015,06,23,16,35,21.20
2015,06,23,16,36,21.20
2015,06,23,16,37,21.20
2015,06,23,16,38,21.20
2015,06,23,16,39,21.20
2015,06,23,16,40,21.20
2015,06,23,16,41,21.20
2015,06,23,16,42,21.20
2015,06,23,16,43,21.10
2015,06,23,16,44,21.10
2015,06,23,16,45,21.10
2015,06,23,16,46,21.20
2015,06,23,16,47,21.30
2015,06,23,16,48,21.30
2015,06,23,16,49,21.40
2015,06,23,16,50,21.40
2015,06,23,16,51,21.40
2015,06,23,16,52,21.40
2015,06,23,16,53,21.50
2015,06,23,16,54,21.50
2015,06,23,16,55,21.50
2015,06,23,16,56,21.50
2015,06,23,16,57,21.50
2015,06,23,16,58,21.60
2015,06,23,16,59,21.60
2015,06,23,17,00,21.60
2015,06,23,17,01,21.60
2015,06,23,17,02,21.50
2015,06,23,17,03,21.50
2015,06,23,17,04,21.50
2015,06,23,17,05,21.50
2015,06,23,17,06,21.50
2015,06,23,17,07,21.40
2015,06,23,17,08,21.40
2015,06,23,17,09,21.40
2015,06,23,17,10,21.30
2015,06,23,17,11,21.20
2015,06,23,17,12,21.20
2015,06,23,17,13,21.20
2015,06,23,17,14,21.30
2015,06,23,17,15,21.30
2015,06,23,17,16,21.30
2015,06,23,17,17,21.30
2015,06,23,17,18,21.40
2015,06,23,17,19,21.40